Location: Aetna Mine
(37.6183°N, 107.6045°W)
Time: 00:23:51
(UTC+00:00)

ADEOS - Pass Details

Date: 18 September 2020
Orbit: 792 x 794 km, 98.9° (Epoch: 27 October)

Event Time Altitude Azimuth Distance (km) Brightness Sun altitude
Rises 12:15:14 0° 5° (N) 3,299 7.0 -8.7°
Reaches altitude 10° 12:17:41 10° 358° (N) 2,366 6.1 -8.3°
Maximum altitude 12:22:30 39° 290° (WNW) 1,167 4.1 -7.3°
Drops below altitude 10° 12:27:18 10° 223° (SW) 2,352 5.6 -6.4°
Sets 12:29:44 0° 215° (SW) 3,277 6.4 -5.9°
